Dewpoint
61 61 61 61 60 61 60 59 57 57 57 58 58 58 58 58 58 59 60 60 61 61 61 60 60 59 59 59 60 61 61 60 59 58 57 57 58 58 59 61 61 62 62 62 62 62 61 61 60 60 59 59 59 59 59 58 58 58 58 58 58 58 58 58 58 58 59 59 56
61 61 61 60 60 61 61 59 58 58 58 58 58 58 58 58 58 58 59 60 60 60 61 60 59 59 59 59 60 61 61 60 59 58 58 57 57 58 59 60 61 61 62 62 62 61 61 60 60 59 59 59 59 59 59 58 58 58 58 58 58 58 58 58 58 58 59 59 56
61 62 62 62 62 62 61 59 59 58 58 58 58 58 58 58 58 58 59 59 60 60 60 60 59 59 59 59 60 61 61 60 60 59 58 58 58 59 59 60 61 61 61 62 62 61 60 60 59 59 58 59 59 59 59 59 58 58 58 58 58 58 58 58 58 58 59 59 58
62 62 63 62 62 62 61 60 59 59 58 58 59 58 58 58 58 58 59 59 60 60 60 59 59 58 58 59 60 60 61 60 60 59 59 58 58 59 60 59 61 62 62 62 62 61 60 60 59 59 58 59 59 59 59 59 58 58 58 58 59 59 58 58 58 59 59 59 59
62 62 62 62 62 62 62 60 59 59 59 59 59 59 59 59 58 58 58 59 59 60 60 59 59 58 58 58 59 60 61 60 58 58 59 58 59 59 60 60 61 62 62 62 62 61 60 60 59 59 59 59 59 59 59 59 58 58 58 58 59 59 59 59 59 59 59 59 59
62 62 63 62 62 62 62 61 60 60 59 59 59 59 59 59 58 58 58 58 59 60 60 59 58 57 57 59 60 60 60 61 59 59 59 58 59 60 60 60 61 61 61 62 62 61 60 59 59 59 59 59 59 59 59 59 58 58 58 58 58 59 59 59 59 59 59 59 59
61 62 63 64 64 64 63 63 61 60 59 59 59 59 59 59 58 58 58 59 59 60 60 58 58 58 58 59 59 60 60 60 60 59 59 58 59 59 60 60 60 60 61 61 61 61 60 59 59 59 58 58 59 59 59 59 58 58 58 58 58 59 59 59 59 59 59 58 58
61 62 63 65 65 65 65 64 62 61 60 59 59 59 60 59 59 59 59 59 60 60 60 60 60 59 59 59 59 60 61 60 60 59 59 58 59 59 60 60 60 60 60 61 61 61 60 59 59 59 58 58 59 59 58 58 58 58 58 58 58 58 59 59 59 59 59 57 57
61 62 63 65 66 66 65 65 63 62 60 60 60 60 60 60 59 59 59 59 59 60 60 60 60 60 59 59 59 61 61 61 60 59 59 58 58 59 59 60 60 60 60 60 61 61 60 59 59 59 59 59 59 58 58 58 58 57 57 58 58 58 59 59 59 59 59 58 57
60 62 63 65 66 66 65 65 63 62 61 60 60 60 60 58 59 59 59 59 59 60 60 60 60 60 60 59 61 62 62 61 60 59 59 57 58 59 59 59 59 60 60 60 60 61 60 59 59 59 59 59 59 58 58 58 58 58 57 58 57 58 58 59 59 59 58 57 56
60 61 63 65 65 65 65 64 63 62 61 61 60 61 60 59 60 60 59 59 60 61 61 60 60 61 62 61 62 62 62 61 60 60 59 58 58 59 59 59 59 59 59 60 60 60 60 59 59 58 58 59 58 58 58 58 58 58 58 58 57 57 58 58 58 58 57 56 55
59 61 63 65 65 65 65 64 63 62 62 61 62 62 61 61 61 60 59 59 61 61 61 61 61 62 62 62 62 62 62 61 60 59 59 58 58 59 59 59 59 59 59 59 60 60 60 59 58 58 58 58 58 58 57 58 58 58 57 57 57 57 57 57 57 56 55 53 53
60 62 63 65 65 65 64 63 63 63 62 62 63 63 62 61 60 59 59 59 60 61 61 61 61 62 62 62 62 62 62 61 60 59 58 58 58 58 58 59 59 59 59 59 60 60 59 59 58 58 58 58 58 58 57 57 57 57 57 57 57 57 57 56 56 55 53 52 52
61 62 63 64 65 65 64 63 63 63 63 63 63 64 63 62 60 59 59 59 60 60 61 62 61 62 62 62 62 62 61 61 60 59 59 58 58 58 58 58 59 59 59 59 59 59 59 59 58 58 58 57 58 57 57 57 57 57 57 57 56 56 56 55 55 53 52 51 51
62 62 63 63 63 64 64 64 63 63 63 63 63 64 64 62 60 59 59 59 60 60 61 62 62 62 62 62 62 62 61 61 60 59 58 58 58 58 58 58 59 59 59 59 59 59 59 59 58 58 58 57 57 57 57 57 57 57 57 56 55 55 55 55 54 53 51 50 50
62 62 62 62 63 63 63 63 63 63 63 63 63 64 64 62 61 60 59 60 60 60 61 62 64 64 63 62 62 62 61 61 60 59 58 58 58 58 58 58 58 59 59 58 59 59 59 59 59 58 58 58 57 57 57 57 57 56 56 55 55 54 54 54 53 52 50 50 49
62 62 62 62 62 62 62 62 63 63 63 63 64 63 63 62 61 60 59 60 59 60 62 62 64 64 63 62 62 61 61 61 60 59 58 58 58 58 58 58 58 59 59 58 58 59 59 59 59 59 58 58 58 57 57 57 57 56 56 55 54 54 53 53 52 51 50 49 49
62 62 61 62 62 62 62 62 63 64 64 63 63 63 62 62 61 61 60 60 59 61 62 63 64 64 63 62 62 61 61 60 59 59 58 58 58 58 58 58 59 59 59 58 58 58 59 59 59 59 58 58 58 57 57 57 57 57 56 55 54 53 53 52 52 51 50 49 49
62 62 62 62 62 62 62 62 63 63 64 64 64 63 62 62 62 61 61 60 59 61 62 63 63 63 63 62 62 61 60 60 59 59 58 58 58 58 58 58 59 59 59 58 58 59 59 59 59 59 58 58 58 57 57 57 57 57 57 56 55 54 53 52 51 50 50 50 51
61 62 63 63 62 62 62 62 63 62 62 63 64 64 64 64 62 61 60 60 59 60 62 62 62 62 62 62 62 61 60 60 59 59 58 58 58 58 58 59 59 59 59 59 59 59 59 59 58 58 58 58 57 57 57 57 57 57 57 57 56 55 53 52 51 50 50 50 52
61 62 63 63 64 64 63 63 63 62 62 63 64 64 64 64 62 61 59 59 59 60 62 62 62 62 62 62 61 61 60 60 59 59 58 58 58 58 58 59 59 59 59 59 59 59 59 58 58 57 57 57 57 57 57 57 57 57 58 58 57 57 55 53 51 50 49 49 52
61 62 63 64 64 64 64 64 63 62 62 63 64 64 64 64 62 61 59 58 58 59 60 61 61 62 62 62 61 61 60 59 59 59 58 58 58 58 58 59 59 59 59 59 58 58 58 58 57 57 57 57 57 57 57 57 57 58 58 58 58 57 57 55 52 50 49 49 51
61 62 63 64 64 64 63 64 63 63 62 63 64 64 64 64 63 62 60 59 58 59 60 61 61 61 61 62 61 61 60 59 59 58 58 58 58 58 58 59 59 59 59 58 58 58 58 57 57 57 57 57 57 57 57 57 57 58 58 58 58 57 57 57 55 52 50 49 50
60 61 62 62 64 64 63 63 63 63 63 63 64 64 64 63 62 62 61 60 60 60 61 62 61 61 61 61 61 60 59 58 58 58 58 58 58 58 58 59 59 59 59 58 57 57 57 57 57 57 57 57 57 57 57 57 57 57 58 58 57 57 56 56 56 54 52 50 52
58 59 60 61 63 63 63 63 63 63 63 63 64 64 63 62 62 62 62 61 61 61 61 61 61 61 62 61 61 60 59 58 58 57 57 58 58 58 58 58 58 59 58 57 53 51 51 53 56 57 57 57 57 57 57 57 57 57 57 57 57 57 57 57 57 55 53 52 53
57 57 58 60 62 62 62 63 63 63 63 64 64 63 63 62 62 62 62 61 61 61 61 61 61 60 60 61 60 60 59 58 58 57 57 57 57 58 58 58 58 59 57 54 48 47 48 49 50 53 55 57 57 57 57 57 56 55 55 55 56 57 57 57 57 56 55 53 48
56 57 57 59 61 62 62 63 62 63 63 63 63 63 62 62 62 61 61 61 61 61 61 61 61 59 58 61 60 59 58 58 58 58 57 57 57 57 58 58 58 58 57 50 46 45 46 47 47 49 52 57 57 57 57 57 57 56 55 56 57 57 57 57 57 57 57 54 48
57 57 58 60 61 62 63 63 62 62 63 63 63 62 62 62 61 61 61 60 60 60 60 61 60 60 60 60 60 59 58 58 57 57 58 58 57 57 57 58 58 57 53 47 45 45 45 46 46 46 48 53 57 57 57 58 58 58 58 57 58 58 58 58 58 58 57 54 50
57 59 60 61 62 62 62 63 63 63 63 62 62 62 62 62 61 60 60 60 60 60 60 60 60 60 60 60 60 59 58 57 57 57 58 58 58 57 57 58 58 55 49 44 45 45 45 45 45 45 46 49 55 57 58 58 59 59 58 58 58 58 58 58 58 58 57 55 52
57 59 59 60 60 60 61 62 62 62 62 62 62 62 61 61 60 60 60 60 59 59 60 60 60 60 60 60 60 59 59 58 57 57 57 57 57 57 57 57 57 54 49 44 45 45 45 45 44 44 44 46 53 57 58 58 57 56 54 53 54 54 55 55 56 56 56 54 51
57 57 58 58 58 59 59 60 60 61 61 62 62 61 61 60 60 60 59 60 59 59 59 60 59 59 59 60 60 60 59 59 58 57 57 57 56 57 57 58 57 53 48 44 45 45 45 45 44 44 44 45 52 56 57 53 50 49 49 49 49 49 50 50 51 52 52 51 48
56 56 57 57 57 58 58 59 60 60 61 61 61 61 60 60 59 59 59 59 59 59 59 59 59 59 59 59 60 60 60 59 58 57 57 57 57 57 57 57 57 52 47 44 45 45 45 45 45 45 45 45 47 48 48 47 47 47 46 44 44 44 45 46 47 48 49 50 49
55 56 56 57 57 57 58 59 60 60 60 60 60 60 59 59 59 59 59 59 59 59 59 59 59 59 59 59 59 59 59 59 58 57 57 57 57 57 57 57 56 51 45 44 44 44 44 44 43 43 42 43 45 46 46 45 44 43 43 41 41 41 41 42 43 44 46 47 48
55 55 56 56 56 57 57 58 59 59 59 59 59 59 59 59 59 59 58 58 58 58 58 58 58 58 58 59 59 58 58 57 57 57 57 57 57 56 56 55 53 48 44 42 42 42 42 42 42 42 42 42 44 44 44 42 41 40 40 39 39 38 38 38 39 40 41 42 43
55 55 55 55 56 56 57 57 58 58 58 57 56 55 55 54 54 53 53 52 52 52 52 52 52 52 53 54 55 53 51 51 52 52 53 53 52 51 50 51 49 46 42 42 41 41 41 41 41 41 41 42 43 43 42 40 39 38 38 37 36 36 36 36 37 38 39 39 39
54 55 55 55 56 56 57 57 57 55 54 53 52 52 51 51 51 50 49 48 48 48 48 47 47 47 47 46 47 47 48 48 48 48 48 48 48 48 47 47 46 44 41 41 41 41 41 41 41 41 41 42 42 42 40 39 37 36 35 35 35 35 35 35 35 36 37 37 37
54 54 55 55 56 55 55 54 53 52 51 50 50 50 49 49 49 48 48 47 47 46 45 45 44 44 44 44 44 44 44 45 45 46 46 46 46 45 45 45 45 43 41 41 41 41 41 41 40 40 41 41 41 40 39 37 36 35 34 33 33 33 33 33 33 34 34 35 35
54 54 55 55 53 52 51 51 51 50 49 49 48 48 48 47 47 46 46 44 44 44 43 42 42 41 41 41 41 41 41 42 42 43 43 43 43 43 43 43 43 42 41 41 41 41 41 40 40 40 40 40 39 39 37 36 35 34 33 32 32 32 32 32 32 32 32 32 33
54 54 53 52 51 50 49 49 49 49 48 48 47 47 46 45 45 44 44 43 42 42 41 40 39 39 39 39 38 38 38 38 39 39 39 39 40 40 40 40 41 40 40 40 40 40 40 40 39 39 39 39 39 38 36 35 34 33 32 31 30 30 31 31 31 31 31 31 32
54 53 51 50 49 48 48 48 48 48 48 47 46 45 44 44 43 42 42 41 40 40 39 38 38 38 37 36 36 36 35 35 35 36 36 37 37 37 38 39 39 39 39 39 39 39 39 39 39 39 39 39 38 37 35 34 33 31 30 30 30 29 29 30 30 30 30 30 30
53 51 49 48 48 48 47 47 47 47 47 46 45 44 44 43 42 41 40 40 39 39 38 37 36 36 35 35 34 34 33 33 33 34 34 34 35 35 36 36 37 38 38 38 38 39 39 39 39 39 38 38 38 36 35 33 32 30 30 29 29 28 28 28 28 28 28 28 28